Location: Avalon Village
(33.8128°N, 118.2640°W)
Time: 19:59:04
(UTC+00:00)

Daily predictions for brighter satellites

Satellite Brightness Start Highest point End
(mag) Time Altitude Azimuth Time Altitude Azimuth Time Altitude Azimuth
Cosmos 1934 Rocket 4.1 12:09:31 10° N 12:15:50 76° E 12:22:11 10° S
CZ-2C R/B 4.2 12:11:57 10° N 12:13:49 23° N 12:13:49 23° N
Lacrosse 4 Rocket 2.3 12:35:48 44° SSE 12:35:48 44° SSE 12:38:53 10° SSE
Cosmos 1605 Rocket 4.2 12:28:31 10° N 12:34:43 68° E 12:40:48 10° SSE
NOSS 3-1 (C) 4.1 12:29:30 22° NNW 12:35:10 88° ENE 12:44:02 10° SSE
BREEZE-M DEB (TANK) 4.1 12:45:29 27° S 12:46:57 39° SE 12:50:47 10° ENE
Okean O Rocket 4.0 12:48:16 10° NE 12:51:46 23° E 12:55:13 10° SSE
Cosmos 1727 Rocket 4.0 12:46:34 10° S 12:52:47 83° E 12:58:59 10° N
ALOS 2.4 12:53:58 10° NNE 12:58:38 72° E 13:03:17 10° S
Cosmos 1992 Rocket 3.9 12:53:41 10° NNW 12:58:56 90° WSW 13:04:09 10° SSE
Shenzhou-11 Module 3.2 13:00:20 36° E 13:00:20 36° E 13:02:08 10° ENE
STARLINK-1043 4.5 13:03:12 25° NNW 13:05:14 47° NE 13:09:13 10° ESE
Cosmos 1743 Rocket 4.2 13:01:01 10° N 13:05:16 56° E 13:09:30 10° SSE
STARLINK-1065 4.3 13:07:59 24° NNW 13:10:12 52° NE 13:14:14 10° ESE
Cosmos 1842 Rocket 3.6 13:07:03 10° SSW 13:11:23 54° W 13:15:47 10° N
Aurora 2 Rocket 4.3 13:11:02 15° SSW 13:13:04 20° S 13:15:52 10° SE
Aureole 1 Rocket 4.4 13:07:03 10° SSW 13:13:55 77° WNW 13:22:16 10° NNE
STARLINK-1063 4.1 13:12:46 23° NNW 13:15:12 58° NE 13:19:16 10° ESE
ATLAS CENTAUR R/B 3.8 13:17:12 12° NNW 13:17:12 12° NNW 13:17:53 10° NNW
STARLINK-1098 4.1 13:15:03 14° SSW 13:18:20 57° SE 13:22:14 10° NE
STARLINK-1064 3.9 13:17:33 21° NW 13:20:11 65° NE 13:24:17 10° SE
H-2A R/B 3.8 13:16:35 10° NNW 13:19:16 24° NW 13:19:16 24° NW
METEOR-M 4.0 13:15:28 10° N 13:20:48 73° WNW 13:26:06 10° SSW
USA 229 DEB 4.2 13:15:41 15° NW 13:21:31 47° WSW 13:28:44 10° S
USA 229 4.1 13:15:45 15° NW 13:21:36 47° WSW 13:28:48 10° S
Milstar 3 4.2 13:11:27 22° W 13:22:10 61° SSW 13:30:44 10° ESE
STARLINK-1123 3.9 13:19:20 13° SSW 13:22:46 64° SE 13:26:42 10° NE
Cosmos 2100 Rocket 4.4 13:16:42 10° N 13:22:52 65° E 13:28:57 10° SSE
Cosmos 2297 4.0 13:19:15 13° NW 13:23:52 43° WSW 13:29:09 10° S
SL-16 R/B 3.6 13:24:17 18° NW 13:24:17 18° NW 13:27:46 10° NNW
STARLINK-1041 3.8 13:22:20 20° NW 13:25:09 72° NE 13:29:17 10° SE
Cosmos 1484 Rocket 3.6 13:22:17 10° NNW 13:25:43 30° WNW 13:26:32 27° W
COSMO-SKYMED 1 2.5 13:22:13 10° S 13:26:31 70° WSW 13:30:52 10° NNW
Meteor PRIRODA 4.5 13:23:44 10° NNW 13:26:55 28° WNW 13:26:55 28° WNW
STARLINK-1097 3.7 13:23:33 12° SW 13:27:10 71° SE 13:31:07 10° NE
Cosmos 1943 Rocket 2.4 13:21:43 10° NNW 13:27:13 69° ENE 13:32:41 10° SSE
Cosmos 1238 4.0 13:24:58 10° S 13:28:15 74° W 13:31:15 10° N
NOSS 3-1 (A) 4.2 13:20:48 10° NW 13:28:44 67° WSW 13:37:30 10° SSE
STARLINK-1038 3.6 13:27:06 18° NW 13:30:08 81° NE 13:34:16 10° SE
STARLINK-1099 3.6 13:27:50 11° SW 13:31:37 80° SE 13:35:34 10° NE
Delta 7925 Rocket 4.4 13:29:06 17° WSW 13:32:02 33° S 13:36:26 10° ESE
STARLINK-1046 3.6 13:31:53 16° NW 13:35:06 90° NE 13:39:14 10° SE
STARLINK-1104 3.5 13:32:03 10° SW 13:35:59 88° SE 13:39:58 10° NE
PSLV R/B 4.3 13:32:44 10° N 13:36:06 32° WNW 13:39:31 10° SW
USA 116 3.4 13:33:04 10° SSE 13:36:27 73° ENE 13:39:37 10° N
Cosmos 1023 Rocket 4.4 13:31:46 10° SSW 13:37:01 82° WNW 13:42:19 10° NNE
Cosmos 1603 3.9 13:34:02 10° SW 13:39:33 49° WNW 13:45:05 10° N
STARLINK-1039 3.5 13:36:40 15° NW 13:40:04 81° SW 13:44:12 10° SE
STARLINK-1144 3.4 13:36:28 10° SW 13:40:26 83° NW 13:44:25 10° NE
Cosmos 921 Rocket 4.0 13:39:35 10° N 13:43:53 49° ENE 13:48:04 10° SSE
Cosmos 1459 Rocket 4.0 13:37:55 10° N 13:44:07 89° ENE 13:50:24 10° S
Cosmos 2123 Rocket 4.5 13:38:17 10° S 13:44:32 68° E 13:50:48 10° NNE
STARLINK-1103 3.4 13:40:57 10° SW 13:44:54 75° NW 13:48:52 10° NE
STARLINK-1045 3.6 13:41:28 13° NW 13:45:04 72° SW 13:49:10 10° SE
Cosmos 2369 Rocket 2.4 13:39:35 10° NNW 13:45:19 77° ENE 13:51:01 10° SSE
Cosmos 1954 Rocket 4.3 13:40:03 10° S 13:45:20 76° ESE 13:50:39 10° NNE
FENGYUN 3A 4.1 13:41:05 10° N 13:46:08 40° WNW 13:51:10 10° SW
Cosmos 2221 3.4 13:42:40 10° SW 13:46:16 27° WNW 13:49:55 10° NNW
Cosmos 1943 3.3 13:41:57 10° SW 13:47:26 55° WNW 13:52:57 10° NNE
CZ-4B DEB 4.3 13:42:27 10° N 13:47:44 51° WNW 13:52:58 10° SSW
Cosmos 407 Rocket 3.8 13:42:57 10° SW 13:48:03 45° WNW 13:53:09 10° N
Meteor 2-3 Rocket 4.2 13:43:46 10° NNW 13:49:06 40° W 13:54:28 10° SSW
STARLINK-1101 3.5 13:45:22 10° SW 13:49:19 68° NW 13:53:17 10° NE
STARLINK-1050 3.7 13:46:21 12° NW 13:50:05 62° SW 13:54:10 10° SSE
Lacrosse 5 2.9 13:47:32 10° NNW 13:52:24 45° NE 13:57:15 10° ESE
Cosmos 1238 Rocket 4.0 13:47:07 10° N 13:53:12 72° E 13:58:17 10° SSE
STARLINK-1128 3.5 13:49:47 10° WSW 13:53:39 59° NW 13:57:33 10° NE
STARLINK-1102 3.5 13:49:50 10° SW 13:53:46 61° NW 13:57:43 10° NE
Cosmos 1802 Rocket 4.1 13:48:14 10° N 13:54:41 88° E 14:01:06 10° S
STARLINK-1055 3.8 13:51:05 11° NW 13:55:01 55° SW 13:59:03 10° SSE
STARLINK-1070 4.0 13:54:45 14° W 13:56:31 23° NW 13:58:58 10° NNE
Cosmos 1633 2.5 13:53:00 10° N 13:56:39 81° W 14:00:16 10° S
Cosmos 1140 Rocket 3.6 13:51:39 10° SSW 13:56:45 54° WNW 14:01:53 10° N
STARLINK-1124 4.3 13:55:42 14° WNW 13:57:13 19° NW 13:59:26 10° NNE
STARLINK-1066 4.1 13:55:40 14° W 13:57:30 23° NW 13:59:56 10° NNE
STARLINK-1081 4.1 13:55:54 13° W 13:57:44 23° NW 14:00:10 10° NNE
STARLINK-1113 3.6 13:54:01 10° WSW 13:57:52 53° NW 14:01:44 10° NE
STARLINK-1069 4.1 13:56:20 13° W 13:58:11 23° NW 14:00:36 10° NNE
STARLINK-1111 3.6 13:54:21 10° WSW 13:58:15 55° NW 14:02:10 10° NE
STARLINK-1085 4.1 13:56:33 13° W 13:58:25 23° NW 14:00:50 10° NNE
STARLINK-1086 4.1 13:56:46 13° W 13:58:38 22° NW 14:01:02 10° NNE
STARLINK-1095 4.1 13:56:59 13° W 13:58:52 22° NW 14:01:15 10° NNE
STARLINK-1077 4.1 13:57:11 13° W 13:59:05 22° NW 14:01:28 10° NNE
STARLINK-1075 4.1 13:57:25 13° W 13:59:18 22° NW 14:01:42 10° NNE
Cosmos 1400 Rocket 3.0 13:55:29 10° S 13:59:26 79° E 14:03:27 10° N
STARLINK-1093 4.1 13:57:37 13° W 13:59:33 22° NW 14:01:55 10° NNE
STARLINK-1074 4.1 13:57:51 13° W 13:59:46 22° NW 14:02:08 10° NNE
STARLINK-1022 3.9 13:55:58 10° NW 13:59:58 49° SW 14:03:58 10° SSE
STARLINK-1087 4.1 13:58:03 12° W 14:00:00 22° NW 14:02:21 10° NNE
STARLINK-1088 4.1 13:58:16 12° W 14:00:12 22° NW 14:02:33 10° NNE
STARLINK-1115 4.1 13:58:29 12° W 14:00:26 22° NW 14:02:47 10° NNE
CZ-4B R/B 3.1 13:55:20 10° N 14:00:34 63° WNW 14:05:46 10° SSW
STARLINK-1076 4.2 13:58:42 12° W 14:00:40 22° NW 14:03:01 10° NNE
STARLINK-1092 4.2 13:58:55 12° W 14:00:53 21° NW 14:03:14 10° NNE
STARLINK-1080 4.2 13:59:08 12° W 14:01:07 21° NW 14:03:27 10° NNE
STARLINK-1090 4.2 13:59:21 12° W 14:01:20 21° NW 14:03:41 10° NNE
STARLINK-1089 4.2 13:59:34 12° W 14:01:34 21° NW 14:03:54 10° NNE
STARLINK-1107 4.2 13:59:47 12° W 14:01:47 21° NW 14:04:06 10° NNE
STARLINK-1109 4.2 14:00:00 12° W 14:02:01 21° NW 14:04:20 10° NNE
STARLINK-1119 3.8 13:58:21 10° WSW 14:02:10 48° NW 14:06:00 10° NE
STARLINK-1091 4.2 14:00:13 12° W 14:02:15 21° NW 14:04:33 10° NNE
STARLINK-1072 4.2 14:00:26 11° W 14:02:28 21° NW 14:04:46 10° NNE
STARLINK-1096 4.2 14:00:40 11° W 14:02:41 20° NW 14:04:58 10° NNE
STARLINK-1073 3.8 13:58:54 10° WSW 14:02:45 49° NW 14:06:38 10° NE
STARLINK-1079 4.2 14:00:52 11° W 14:02:55 21° NW 14:05:13 10° NNE
STARLINK-1116 4.2 14:01:05 11° W 14:03:09 20° NW 14:05:27 10° NNE
Cosmos 1869 4.3 13:59:48 10° SW 14:03:10 25° WNW 14:06:31 10° NNW
STARLINK-1094 4.3 14:01:30 11° W 14:03:35 20° NW 14:05:52 10° NNE
STARLINK-1117 4.3 14:01:43 11° W 14:03:49 20° NW 14:06:06 10° NNE
STARLINK-1078 4.3 14:01:56 11° W 14:04:03 20° NW 14:06:19 10° NNE
STARLINK-1108 4.3 14:02:10 11° W 14:04:17 20° NW 14:06:32 10° NNE
STARLINK-1071 4.3 14:02:23 11° W 14:04:29 20° NW 14:06:44 10° NNE
STARLINK-1110 4.3 14:02:36 11° W 14:04:44 20° NW 14:06:59 10° NNE
STARLINK-1042 4.1 14:01:00 10° WNW 14:04:56 43° SW 14:08:52 10° SSE
STARLINK-1122 4.3 14:03:02 10° W 14:05:11 20° NW 14:07:25 10° NNE
STARLINK-1126 4.3 14:03:14 10° W 14:05:24 19° NW 14:07:37 10° NNE
STARLINK-1082 4.3 14:03:28 10° W 14:05:38 19° NW 14:07:52 10° NNE
STARLINK-1100 4.3 14:03:41 10° W 14:05:51 19° NW 14:08:04 10° NNE
STARLINK-1083 4.3 14:03:54 10° W 14:06:05 19° NW 14:08:18 10° NNE
STARLINK-1125 4.3 14:04:07 10° W 14:06:19 19° NW 14:08:32 10° NNE
STARLINK-1114 3.9 14:02:39 10° WSW 14:06:25 44° NW 14:10:13 10° NNE
STARLINK-1121 3.9 14:03:23 10° WSW 14:07:12 45° NW 14:11:03 10° NNE
STARLINK-1056 4.2 14:06:02 10° WNW 14:09:54 39° SW 14:13:45 10° SSE
STARLINK-1130 (DARKSAT) 4.0 14:06:58 10° WSW 14:10:42 40° NW 14:14:26 10° NNE
Helios 1A Rocket 3.0 14:06:51 10° N 14:10:55 56° WNW 14:14:55 10° SSW
STARLINK-1106 4.0 14:07:58 10° WSW 14:11:45 41° NW 14:15:33 10° NNE
STARLINK-1054 4.4 14:11:04 10° WNW 14:14:51 35° SW 14:18:36 10° SSE
STARLINK-1084 4.1 14:11:18 10° WSW 14:14:59 37° NW 14:18:40 10° NNE
Cosmos 1656 Rocket 4.3 14:10:00 10° NNW 14:15:38 61° ENE 14:21:14 10° SSE
